www.pogodaiklimat.ru
ПОГОДА в Дустлике

Архив погоды в Дустлике (Джизакская область, Узбекистан)

Время
и дата
05:00 28.05
05:20 28.05
05:30 28.05
05:50 28.05
06:00 28.05
06:10 28.05
06:20 28.05
06:30 28.05
06:40 28.05
06:50 28.05
07:00 28.05
07:10 28.05
07:20 28.05
07:30 28.05
07:40 28.05
07:50 28.05
08:00 28.05
08:10 28.05
08:20 28.05
08:30 28.05
08:40 28.05
08:50 28.05
09:00 28.05
09:10 28.05
09:20 28.05
09:30 28.05
09:40 28.05
09:50 28.05
10:00 28.05
10:10 28.05
10:20 28.05
10:30 28.05
10:40 28.05
10:50 28.05
11:00 28.05
11:10 28.05
11:20 28.05
11:30 28.05
11:40 28.05
11:50 28.05
12:00 28.05
12:10 28.05
12:20 28.05
12:30 28.05
13:00 28.05
13:10 28.05
13:20 28.05
13:30 28.05
13:40 28.05
13:50 28.05
14:00 28.05
14:20 28.05
14:30 28.05
14:40 28.05
14:50 28.05
15:00 28.05
15:10 28.05
15:20 28.05
15:30 28.05
15:40 28.05
15:50 28.05
16:00 28.05
16:10 28.05
16:20 28.05
16:30 28.05
16:40 28.05
16:50 28.05
17:00 28.05
17:10 28.05
17:20 28.05
17:40 28.05
17:50 28.05
18:00 28.05
18:10 28.05
18:20 28.05
18:40 28.05
18:50 28.05
19:00 28.05
19:10 28.05
19:20 28.05
19:30 28.05
19:40 28.05
19:50 28.05
20:00 28.05
20:10 28.05
20:20 28.05
20:30 28.05
20:40 28.05
20:50 28.05
21:00 28.05
21:10 28.05
21:20 28.05
21:30 28.05
21:40 28.05
21:50 28.05
22:10 28.05
22:20 28.05
22:30 28.05
22:40 28.05
22:50 28.05
23:00 28.05
23:10 28.05
23:20 28.05
23:50 28.05
00:00 29.05
00:10 29.05
00:20 29.05
00:30 29.05
00:40 29.05
01:00 29.05
01:10 29.05
01:20 29.05
01:30 29.05
01:40 29.05
01:50 29.05
02:00 29.05
02:10 29.05
02:30 29.05
02:40 29.05
02:50 29.05
03:00 29.05
03:10 29.05
03:20 29.05
03:30 29.05
03:40 29.05
03:50 29.05
04:00 29.05
04:10 29.05
04:20 29.05
04:30 29.05
04:40 29.05
04:50 29.05
05:00 29.05
05:10 29.05
05:20 29.05
05:30 29.05
05:40 29.05
05:50 29.05
06:00 29.05
06:10 29.05
06:20 29.05
06:40 29.05
06:50 29.05
07:00 29.05
Ветер
(напр.,м/с)
Видимость Явления Солнечная радиация
(Вт/м2)
Т
(С)
Тd
(С)
f
(%)
Тe
(С)
Тes
(С)
Комфортность P
(гПа)
Po
(гПа)
Тmin
(С)
Tmax
(С)
R
(мм)
З 1.3
{1.9}
+13.5 +11.3 87 +13 +13 1013.5 981.0 +13.6 +13.5
СЗ 1.3
{1.9}
+13.9 +11.6 86 +14 +14 1013.5 981.0 +13.9 +13.8
СЗ 1.5
{2.1}
+14.0 +11.8 87 +14 +14 1013.6 981.1 +14.0 +13.9
СЗ 1.2
{1.7}
+14.7 +12.3 86 +15 +15 1013.8 981.3 +14.7 +14.1
СЗ 1.4
{2.1}
+15.2 +12.6 84 +15 +15 1013.9 981.4 +15.2 +14.7
СЗ 1.6
{2.5}
+15.9 +13.0 83 +16 +16 1014.1 981.6 +15.9 +15.2
СЗ 1.4
{2.1}
+16.3 +13.1 81 +17 +17 1014.1 981.6 +16.3 +15.9
СЗ 1.5
{2.9}
+16.8 +12.9 78 +17 +17 1014.1 981.6 +16.8 +16.3
СЗ 1.9
{2.9}
+17.1 +13.1 77 +17 +17 1014.3 981.8 +17.1 +16.8
СЗ 1.7
{3.3}
+17.6 +12.6 73 +18 +18 1014.3 981.8 +17.6 +17.1
СЗ 2.1
{3.7}
+18.1 +13.0 72 +19 +19 1014.4 981.9 +18.1 +17.6
СЗ 2.2
{3.6}
+18.5 +13.3 72 +20 +20 1014.4 981.9 +18.5 +18.1
СЗ 1.7
{3.0}
+19.2 +14.1 72 +21 +21 комфорт 1014.4 981.9 +19.2 +18.5
С 1.4
{2.9}
+20.0 +14.3 70 +23 +23 комфорт 1014.4 981.9 +20.5 +19.2
СЗ 2.1
{3.8}
+19.4 +14.9 75 +22 +22 комфорт 1014.5 982.0 +20.0 +19.4
СЗ 1.9
{3.3}
+19.8 +14.9 74 +23 +23 комфорт 1014.5 982.0 +19.8 +19.4
СЗ 1.7
{3.3}
+20.0 +14.5 71 +23 +23 комфорт 1014.6 982.1 +20.1 +19.8
СЗ 1.7
{2.9}
+20.4 +15.3 72 +24 +24 комфорт 1014.7 982.2 +20.6 +19.9
СЗ 2.1
{3.6}
+20.9 +15.1 70 +25 +25 комфорт 1014.8 982.3 +20.8 +20.4
СЗ 2.3
{3.5}
+21.3 +14.2 64 +24 +24 комфорт 1014.9 982.4 +21.3 +20.9
СЗ 2.1
{3.5}
+22.3 +15.9 67 +26 +26 жарко 1014.9 982.4 +22.2 +21.3
СЗ 2.5
{4.0}
+22.5 +12.9 55 +25 +25 комфорт 1014.9 982.4 +22.5 +22.1
СЗ 2.2
{3.8}
+23.3 +14.2 56 +27 +27 душно 1014.9 982.4 +23.4 +22.3
СЗ 2.3
{4.5}
+23.8 +12.0 47 +25 +25 комфорт 1014.9 982.4 +24.1 +23.3
СЗ 2.4
{3.9}
+23.9 +11.7 46 +25 +25 комфорт 1014.8 982.3 +24.3 +23.6
СЗ 2.4
{4.1}
+24.4 +11.9 46 +26 +26 жарко 1014.9 982.4 +24.5 +23.9
СЗ 1.7
{3.5}
+25.0 +9.9 38 +26 +26 жарко 1014.8 982.3 +25.2 +24.4
С 1.3
{3.7}
+25.8 +11.0 39 +27 +27 жарко 1014.8 982.3 +25.9 +24.9
СЗ 1.8
{3.9}
+25.8 +11.1 40 +27 +27 жарко 1014.8 982.3 +25.9 +25.4
СЗ 1.7
{4.2}
+26.6 +11.5 39 +28 +28 жарко 1014.9 982.4 +26.8 +25.8
СЗ 2.5
{4.3}
+26.1 +10.1 37 +27 +27 жарко 1014.9 982.4 +26.6 +26.1
СЗ 2.4
{4.9}
+26.7 +7.3 29 +26 +26 жарко 1014.9 982.4 +27.1 +26.1
СЗ 2.4
{4.6}
+27.2 +8.5 31 +27 +27 жарко 1015.0 982.5 +27.5 +26.5
С 2.4
{4.5}
+27.3 +4.6 23 +26 +26 жарко 1015.0 982.5 +27.6 +27.1
С 2.3
{4.6}
+27.8 +5.9 25 +27 +27 жарко 1015.0 982.5 +27.8 +27.1
С 2.5
{5.5}
+28.1 +8.0 28 +28 +28 жарко 1015.0 982.5 +28.1 +27.4
С 2.9
{6.1}
+28.2 +7.5 27 +28 +28 жарко 1015.0 982.5 +28.2 +27.7
С 2.8
{6.3}
+28.4 +5.9 24 +27 +27 жарко 1015.1 982.6 +28.5 +28.0
С 2.7
{5.7}
+28.8 +8.8 29 +29 +29 жарко 1015.0 982.5 +28.7 +28.1
С 2.9
{6.7}
+28.5 +5.0 22 +27 +27 жарко 1015.0 982.5 +28.9 +28.2
С 3.5
{7.6}
+28.7 +5.9 24 +28 +28 жарко 1015.0 982.5 +28.9 +28.5
С 3.3
{6.1}
+29.0 +4.4 21 +27 +27 жарко 1014.9 982.4 +29.2 +28.7
С 3.3
{7.8}
+28.7 +4.1 21 +27 +27 жарко 1014.9 982.4 +29.4 +28.6
С 3.1
{7.8}
+29.0 +6.1 23 +28 +28 жарко 1014.9 982.4 +29.3 +28.6
С 3.0
{7.0}
+29.2 +5.7 23 +28 +28 жарко 1014.8 982.3 +29.3 +28.6
С 2.8
{6.5}
+29.4 +6.2 23 +28 +28 жарко 1014.7 982.2 +29.7 +29.1
С 3.1
{7.0}
+30.0 +7.9 25 +29 +29 жарко 1014.7 982.2 +30.0 +29.1
С 2.5
{5.6}
+29.5 +7.1 24 +28 +28 жарко 1014.7 982.2 +30.0 +29.2
СЗ 3.9
{8.6}
+29.5 +7.5 25 +29 +29 жарко 1014.7 982.2 +29.6 +28.9
С 3.5
{8.6}
+29.5 +5.6 22 +28 +28 жарко 1014.7 982.2 +29.8 +29.3
С 2.8
{7.0}
+29.7 +7.0 24 +29 +29 жарко 1014.7 982.2 +30.0 +29.1
С 3.3
{6.9}
+29.4 +2.4 18 +27 +27 жарко 1014.7 982.2 +29.8 +29.2
С 3.1
{8.4}
+29.4 +4.9 21 +28 +28 жарко 1014.7 982.2 +29.9 +29.3
СЗ 4.1
{7.7}
+29.1 +4.5 21 +27 +27 жарко 1014.7 982.2 +29.7 +28.7
С 2.4
{6.2}
+29.6 +7.4 25 +29 +29 жарко 1014.7 982.2 +29.7 +29.1
С 2.7
{5.9}
+29.5 +4.0 20 +28 +28 жарко 1014.7 982.2 +30.1 +29.4
СЗ 2.8
{5.8}
+29.1 +3.1 19 +27 +27 жарко 1014.6 982.1 +29.7 +29.1
СЗ 3.3
{6.4}
+29.2 +3.3 19 +27 +27 жарко 1014.6 982.1 +29.5 +29.0
СЗ 3.8
{7.0}
+29.3 +5.7 22 +28 +28 жарко 1014.6 982.1 +29.5 +29.0
С 3.0
{5.2}
+29.5 +4.8 21 +28 +28 жарко 1014.6 982.1 +29.7 +29.2
С 2.9
{6.8}
+29.7 +5.7 22 +28 +28 жарко 1014.6 982.1 +29.9 +29.3
С 3.4
{6.9}
+29.4 +6.4 23 +28 +28 жарко 1014.6 982.1 +29.7 +29.2
С 2.8
{7.0}
+29.6 +5.8 22 +28 +28 жарко 1014.7 982.2 +29.7 +29.4
С 2.8
{6.0}
+29.4 +4.8 21 +28 +28 жарко 1014.6 982.1 +29.7 +29.1
СЗ 2.5
{5.2}
+29.3 +5.0 21 +28 +28 жарко 1014.6 982.1 +29.6 +29.1
С 2.6
{6.5}
+29.4 +4.1 20 +28 +28 жарко 1014.6 982.1 +29.5 +29.2
СЗ 2.8
{6.1}
+29.4 +4.5 21 +28 +28 жарко 1014.6 982.1 +29.5 +29.0
С 2.7
{5.6}
+29.4 +4.9 21 +28 +28 жарко 1014.6 982.1 +29.4 +29.1
С 3.0
{7.0}
+29.1 +4.7 21 +27 +27 жарко 1014.6 982.1 +29.4 +29.0
С 2.6
{5.9}
+29.0 +4.5 21 +27 +27 жарко 1014.7 982.2 +29.2 +28.9
С 2.9
{7.0}
+28.6 +5.2 23 +27 +27 жарко 1014.7 982.2 +28.8 +28.6
С 3.1
{6.6}
+28.5 +6.3 24 +27 +27 жарко 1014.7 982.2 +28.8 +28.4
С 3.1
{7.4}
+28.2 +5.6 24 +27 +27 жарко 1014.7 982.2 +28.5 +28.2
С 3.6
{6.8}
+28.0 +6.5 26 +27 +27 жарко 1014.7 982.2 +28.2 +28.0
С 3.0
{5.4}
+27.8 +6.7 26 +27 +27 жарко 1014.7 982.2 +28.1 +27.8
С 2.9
{5.2}
+27.2 +6.9 27 +27 +27 жарко 1014.7 982.2 +27.5 +27.3
С 2.4
{4.8}
+27.0 +7.5 29 +27 +27 жарко 1014.7 982.2 +27.3 +27.0
С 2.0
{3.7}
+26.7 +8.0 31 +27 +27 жарко 1014.8 982.3 +27.0 +26.7
С 1.9
{3.4}
+26.4 +8.1 31 +26 +26 жарко 1014.9 982.4 +26.7 +26.4
С 1.8
{3.3}
+25.8 +8.1 32 +26 +26 жарко 1014.9 982.4 +26.4 +25.9
С 1.6
{3.0}
+25.5 +8.0 33 +26 +26 жарко 1014.9 982.4 +25.8 +25.5
С 1.4
{2.5}
+24.8 +8.0 34 +25 +25 комфорт 1014.9 982.4 +25.5 +24.8
СВ 1.5
{3.1}
+24.5 +7.5 34 +25 +25 комфорт 1014.9 982.4 +24.8 +24.4
С 1.4
{2.5}
+24.1 +7.5 35 +24 +24 комфорт 1014.9 982.4 +24.5 +24.0
С 1.0
{1.7}
+23.5 +8.3 38 +24 +24 комфорт 1014.9 982.4 +24.1 +23.5
СВ 0.8
{1.4}
+22.5 +9.6 44 +24 +24 комфорт 1015.0 982.5 +23.5 +22.5
С 1.1
{1.6}
+22.0 +9.9 46 +24 +24 комфорт 1015.0 982.5 +22.6 +22.1
С 1.0
{1.6}
+21.5 +9.6 47 +23 +23 комфорт 1015.0 982.5 +22.0 +21.5
С 0.7
{1.3}
+20.8 +10.6 52 +24 +24 комфорт 1015.1 982.6 +21.5 +20.8
С 0.6
{1.1}
+20.4 +10.5 53 +23 +23 комфорт 1015.2 982.7 +20.8 +20.3
С 0.4
{0.9}
+19.9 +10.4 54 +23 +23 комфорт 1015.3 982.8 +20.4 +19.9
С 0.5
{0.8}
+19.6 +10.8 57 +22 +22 комфорт 1015.3 982.8 +19.9 +19.6
С 0.5
{1.1}
+19.5 +10.8 57 +22 +22 комфорт 1015.4 982.9 +19.6 +19.4
С 1.2
{1.6}
+19.1 +11.9 63 +21 +21 комфорт 1015.4 982.9 +19.5 +19.1
С 1.2
{3.0}
+19.0 +11.5 62 +21 +21 комфорт 1015.5 983.0 +19.2 +19.0
С 3.4
{6.1}
+20.5 +8.6 46 +22 +22 комфорт 1015.7 983.2 +20.5 +19.7
С 3.5
{6.8}
+20.6 +8.5 46 +22 +22 комфорт 1015.7 983.2 +20.8 +20.5
С 2.7
{4.5}
+20.1 +8.7 48 +22 +22 комфорт 1015.7 983.2 +20.6 +20.1
С 2.4
{4.0}
+19.3 +9.2 52 +21 +21 комфорт 1015.7 983.2 +20.1 +19.3
С 1.8
{3.2}
+18.8 +9.3 54 +20 +20 1015.7 983.2 +19.3 +18.8
С 1.3
{2.8}
+18.2 +9.4 56 +19 +19 1015.6 983.1 +18.8 +18.2
С 1.4
{2.3}
+18.0 +9.6 58 +19 +19 1015.6 983.1 +18.2 +18.0
С 1.6
{3.0}
+18.0 +9.7 58 +19 +19 1015.6 983.1 +18.0 +18.0
С 2.5
{4.3}
+18.1 +9.2 56 +19 +19 1015.6 983.1 +18.2 +18.0
С 2.3
{4.0}
+17.9 +9.1 57 +18 +18 1015.6 983.1 +18.1 +17.9
С 2.4
{4.0}
+17.7 +9.1 57 +18 +18 1015.6 983.1 +17.9 +17.7
С 1.9
{4.0}
+17.2 +9.1 59 +18 +18 1015.5 983.0 +17.7 +17.1
С 1.8
{3.3}
+16.9 +9.1 60 +17 +17 1015.5 983.0 +17.2 +16.9
С 1.5
{3.0}
+16.6 +9.3 62 +17 +17 1015.5 983.0 +16.9 +16.6
С 1.4
{3.2}
+15.9 +9.5 66 +16 +16 1015.4 982.9 +16.3 +15.9
С 1.4
{2.9}
+16.0 +9.4 65 +16 +16 1015.3 982.8 +16.0 +15.9
С 1.3
{2.8}
+15.9 +9.2 64 +16 +16 1015.4 982.9 +16.1 +15.9
СЗ 0.7
{1.6}
+15.6 +9.3 66 +17 +17 1015.4 982.9 +16.0 +15.6
ЮЗ 1.0
{1.9}
+15.4 +9.2 66 +16 +16 1015.5 983.0 +15.6 +15.4
З 1.5
{2.5}
+15.3 +9.5 68 +16 +16 1015.5 983.0 +15.5 +15.2
З 1.4
{2.4}
+15.3 +9.3 67 +16 +16 1015.6 983.1 +15.3 +15.2
ЮЗ 2.0
{3.5}
+14.7 +9.3 70 +14 +14 1015.8 983.3 +15.3 +14.7
З 2.0
{4.0}
+14.6 +8.5 67 +14 +14 1015.7 983.2 +14.6 +14.4
ЮЗ 1.8
{2.8}
+14.4 +8.5 68 +14 +14 1015.8 983.3 +14.6 +14.4
ЮЗ 1.5
{2.5}
+14.4 +8.4 67 +14 +14 1015.8 983.3 +14.5 +14.4
З 1.3
{2.4}
+14.9 +8.2 64 +15 +15 1015.8 983.3 +15.0 +14.4
ЮЗ 1.4
{2.9}
+15.2 +8.1 63 +16 +16 1016.0 983.4 +15.3 +14.8
ЮЗ 1.4
{3.0}
+15.2 +8.2 63 +16 +16 1015.8 983.3 +15.2 +15.0
ЮЗ 1.8
{2.8}
+15.1 +8.0 62 +15 +15 1015.8 983.3 +15.2 +15.1
ЮЗ 1.6
{2.8}
+15.0 +7.6 61 +15 +15 1015.8 983.3 +15.2 +14.9
З 1.6
{2.8}
+14.8 +7.5 62 +15 +15 1015.8 983.3 +15.0 +14.8
З 1.4
{2.4}
+14.5 +7.3 62 +15 +15 1015.8 983.3 +14.8 +14.5
З 1.2
{2.0}
+14.3 +7.0 61 +15 +15 1016.0 983.4 +14.6 +14.4
З 1.3
{2.2}
+14.3 +6.6 60 +15 +15 1016.0 983.4 +14.5 +14.3
З 1.3
{2.5}
+14.3 +6.4 59 +15 +15 1015.8 983.3 +14.3 +14.1
З 1.6
{2.6}
+14.4 +6.0 57 +14 +14 1015.8 983.3 +14.5 +14.2
З 1.5
{2.8}
+14.4 +5.9 56 +15 +15 1015.8 983.3 +14.6 +14.4
З 1.4
{2.2}
+14.3 +6.1 58 +14 +14 1015.8 983.3 +14.4 +14.3
З 1.1
{2.0}
+13.9 +6.2 60 +14 +14 1015.8 983.3 +14.3 +13.9
З 0.7
{1.1}
+13.8 +6.3 61 +15 +15 1015.8 983.3 +14.0 +13.8
З 0.8
{1.6}
+13.8 +6.9 63 +14 +14 1016.0 983.4 +14.0 +13.8
З 1.0
{1.7}
+14.0 +6.3 60 +14 +14 1016.0 983.4 +14.0 +13.7
З 1.2
{1.9}
+15.1 +6.4 56 +16 +16 1016.0 983.4 +15.1 +14.0
З 0.7
{1.6}
+16.0 +6.1 52 +17 +17 1016.0 983.4 +15.9 +15.1
З 0.6
{1.5}
+16.6 +6.6 51 +18 +18 1016.0 983.4 +16.6 +16.0
СЗ 0.9
{1.8}
+17.3 +6.2 48 +18 +18 1015.8 983.3 +17.2 +16.6
СЗ 0.8
{1.8}
+18.5 +6.3 45 +20 +20 1015.8 983.3 +18.5 +18.1
СЗ 1.2
{2.5}
+18.7 +6.8 46 +20 +20 1015.7 983.2 +18.7 +18.4
З 1.3
{2.7}
+18.9 +7.3 47 +20 +20 1015.7 983.2 +18.9 +18.7
Местоположение метеостанции Дустлик (Джизакская область, Узбекистан): широта 40.53 долгота 68.03 высота над уровнем моря 0 м.
В архиве по умолчанию представлена погода в Дустлике за последние 1-2 суток. Обновление информации о фактической погоде в базе происходит ежечасно! Архивные данные за месяц целиком и за предыдущие месяцы Вы можете получить, выбрав интересующий диапазон дат из раскрывающегося списка и нажав кнопку "Ввод!".
*Определитесь, кто Вы:
Внимание! Время в таблицах - местное (без учета летнего времени). Для получения всемирного времени необходимо вычесть поправку, которая равна 5 ч.
Смотрите также архив погоды на ближайших метеорологических станциях:
Партнеры нашего сайта:      
Пояснения к столбцам:
  • Ветер - указаны скорость ветра в м/с - средняя за 10 мин, порывы в срок и между сроками (в фигурных скобках) и направление, откуда дует ветер: С - северный,
  • СВ - северо-восточный, В - восточный, ЮВ - юго-восточный, Ю - южный, ЮЗ - юго-западный, З - западный, СЗ - северо-западный.
  • Видимость - горизонтальная дальность видимости в метрах или километрах. При видимости от 1 до 10 км при отсутствии осадков обычно наблюдается дымка, при ухудшении видимости до 1 км и менее - туман. В сухую погоду видимость может ухудшаться дымом, пылью или мглою.
  • Явления - указаны атмосферные явления, наблюдавшиеся в срок или в последний час перед сроком.
  • Солнечная радиация - мощность потока солнечного излучения на поверхность земли и предметов в Вт/м2.
  • T - Температура воздуха - температура, измеренная на высоте 2 м над землей.
  • Td - Температура точки росы - температура, при понижении до которой содержащийся в воздухе водяной пар достигнет насыщения.
  • f - Относительная влажность воздуха - влажноcть воздуха, измеренная на высоте 2 м над землей.
  • Te - Эффективная температура - температура, которую ощущает одетый по сезону человек в тени. Характеристика душности погоды. При расчете учитывается влияние влажности воздуха и скорости ветра на теплоощущения человека.
  • Tes - Эффективная температура на солнце - температура, которую ощущает человек, с поправкой на солнечный нагрев. Характеристика знойности погоды. Зависит от высоты солнца над горизонтом, облачности и скорости ветра. Ночью, в пасмурную погоду, а также при ветре 12 м/с и более поправка равна нулю.
  • P - Атмосферное давление - приведенное к уровню моря атмосферное давление.
  • Po - Атмосферное давление - измеренное на уровне метеостанции атмосферное давление.
  • Tmin - Минимальная температура - минимум температуры воздуха на высоте 2 м над землей.
  • Tmax - Максимальная температура - максимум температуры воздуха на высоте 2 м над землей.
  • R - Количество осадков - Количество выпавших осадков за период времени, мм. При наведении курсора мыши на число - период времени, за который выпало указанное количество осадков.